This demonstration page uses our WeatherBlox Daily Observations layout. Learn more.

Left ArrowRight Arrow

39.51506, -84.39828

Hourly Observations for April 7, 2015

Temp ( °F °C ) Dew Point ( °F °C ) Humidity (%) Winds ( mph kmh ) Pressure ( in mb ) Visibility ( mi km ) Precip ( " mm )
12:15 am 00:15 Cloudy with Mist and Fog 55 12.8 52 11.1 90 90 N N/A 30.09 1019 3 4.82802 N/A
12:35 am 00:35 Cloudy with Mist and Fog 55 12.5 51 10.8 89 89 N N/A 30.09 1019 3 4.82802 N/A
1:00 am 01:00 Cloudy with Mist and Fog 55 12.7 52 11 89 89 N N/A 30.09 1019 4 6.43736 N/A
1:15 am 01:15 Cloudy with Mist and Fog 56 13.4 53 11.7 90 90 N N/A 30.09 1019 4 6.43736 N/A
1:35 am 01:35 Cloudy with Mist and Fog 57 13.8 54 12.1 90 90 N N/A 30.09 1019 4 6.43736 N/A
1:55 am 01:55 Cloudy with Mist and Fog 57 13.8 54 12.1 90 90 N N/A 30.09 1019 5 8.0467 N/A
2:15 am 02:15 Cloudy with Mist and Fog 56 13.3 53 11.6 90 90 N N/A 30.09 1019 5 8.0467 N/A
2:35 am 02:35 Cloudy with Mist and Fog 56 13.4 53 11.7 90 90 N N/A 30.09 1019 4 6.43736 N/A
2:55 am 02:55 Cloudy with Mist and Fog 55 13 53 11.4 90 90 N N/A 30.09 1019 3 4.82802 N/A
3:15 am 03:15 Cloudy with Mist and Fog 56 13.6 54 12 90 90 N N/A 30.06 1018 3 4.82802 N/A
3:35 am 03:35 Cloudy with Mist and Fog 57 13.8 54 12.1 90 90 N N/A 30.06 1018 5 8.0467 N/A
3:55 am 03:55 Cloudy 60 15.3 56 13.5 89 89 S 7 11 30.06 1018 10 16.0934 N/A
4:15 am 04:15 Cloudy 60 15.3 55 12.6 84 84 SSW 7 11 30.06 1018 10 16.0934 N/A
4:35 am 04:35 Cloudy 60 15.3 54 12.3 82 82 S 8 13 30.06 1018 10 16.0934 N/A
4:55 am 04:55 Cloudy 60 15.3 54 12.4 83 83 SSW 7 11 30.06 1018 10 16.0934 N/A
5:15 am 05:15 Cloudy 60 15.3 55 12.5 84 84 S 8 13 30.06 1018 10 16.0934 N/A
5:35 am 05:35 Cloudy 60 15.3 55 12.5 84 84 S 6 9 30.06 1018 10 16.0934 N/A
5:55 am 05:55 Cloudy with Light Rain 60 15.3 55 12.6 84 84 N N/A 30.03 1017 10 16.0934 N/A
6:15 am 06:15 Cloudy with Rain 60 15.3 55 12.8 85 85 SW 5 7 30.06 1018 10 16.0934 N/A
6:35 am 06:35 Cloudy with Rain 60 15.3 56 13.1 87 87 N N/A 30.06 1018 4 6.43736 N/A
6:55 am 06:55 Cloudy with Light Rain 60 15.3 56 13.2 87 87 N N/A 30.03 1017 10 16.0934 N/A
7:15 am 07:15 Cloudy 60 15.3 56 13.3 88 88 S 7 11 30.06 1018 10 16.0934 N/A
7:35 am 07:35 Cloudy 60 15.3 56 13.3 88 88 S 9 15 30.03 1017 7 11.26538 N/A
7:55 am 07:55 Cloudy 60 15.3 56 13.2 87 87 S 8 13 30.03 1017 7 11.26538 N/A
8:15 am 08:15 Cloudy 60 15.4 56 13.2 87 87 SSW 7 11 30.06 1018 7 11.26538 N/A
8:35 am 08:35 Cloudy with Mist and Fog 60 15.5 56 13.3 87 87 WSW 10 17 30.03 1017 5 8.0467 N/A
8:55 am 08:55 Cloudy with Mist and Fog 61 16 57 14 88 88 SSW 10 17 30.03 1017 5 8.0467 N/A
9:15 am 09:15 Cloudy with Mist and Fog 61 16 57 13.9 87 87 SW 9 15 30.03 1017 5 8.0467 N/A
9:35 am 09:35 Cloudy with Mist and Fog 62 16.6 58 14.5 88 88 SSW 8 13 30.03 1017 5 8.0467 N/A
9:55 am 09:55 Cloudy 62 16.6 58 14.2 86 86 SSW 8 13 30.03 1017 7 11.26538 N/A
10:15 am 10:15 Cloudy with Light Rain 62 16.5 58 14.2 86 86 N N/A 30.03 1017 4 6.43736 N/A
10:35 am 10:35 Cloudy with Mist and Fog 62 16.6 58 14.3 86 86 S 5 7 30.03 1017 5 8.0467 N/A
10:55 am 10:55 Cloudy with Mist and Fog 62 16.6 58 14.2 86 86 SSE 3 6 30.03 1017 5 8.0467 N/A
11:15 am 11:15 Cloudy 63 17 58 14.5 85 85 S 6 9 30.03 1017 7 11.26538 N/A
11:35 am 11:35 Cloudy 63 17.1 58 14.5 85 85 SSW 6 9 30.03 1017 7 11.26538 N/A
11:55 am 11:55 Cloudy 64 18 59 15.1 83 83 N N/A 30.03 1017 10 16.0934 N/A
12:15 pm 12:15 Cloudy 67 19.4 61 16 81 81 N N/A 30.03 1017 10 16.0934 N/A
12:35 pm 12:35 Cloudy 67 19.3 61 15.9 81 81 N N/A 30.03 1017 10 16.0934 N/A
12:55 pm 12:55 Cloudy with Light Rain 64 18 59 15.1 83 83 N N/A 30.03 1017 5 8.0467 N/A
1:15 pm 13:15 Cloudy with Drizzle 64 18 60 15.5 85 85 S 5 7 30.03 1017 3 4.82802 N/A
1:35 pm 13:35 Cloudy 67 19.5 62 16.6 83 83 S 6 9 30.03 1017 10 16.0934 N/A
1:55 pm 13:55 Cloudy 67 19.5 61 16.3 82 82 SSW 6 9 30.03 1017 10 16.0934 N/A
2:15 pm 14:15 Cloudy with Rain 67 19.5 62 16.4 82 82 SSW 7 11 30.03 1017 10 16.0934 N/A
2:35 pm 14:35 Cloudy with Rain 65 18.4 61 16 86 86 SW 6 9 30.03 1017 1.75 2.816345 N/A
2:55 pm 14:55 Cloudy with Mist and Fog 67 19.5 63 17.1 86 86 SSW 7 11 30.03 1017 5 8.0467 N/A
3:15 pm 15:15 Cloudy 67 19.5 63 17 86 86 SSW 7 11 30.03 1017 10 16.0934 N/A
3:35 pm 15:35 Cloudy 67 19.5 63 17 86 86 S 7 11 30 1016 10 16.0934 N/A
3:55 pm 15:55 Cloudy 69 20.8 65 18.2 85 85 SSW 6 9 30 1016 10 16.0934 N/A
4:15 pm 16:15 Cloudy 69 20.8 64 18 84 84 S 8 13 29.97 1015 10 16.0934 N/A
4:35 pm 16:35 Cloudy 69 20.8 63 17.4 81 81 S 8 13 30 1016 10 16.0934 N/A
4:55 pm 16:55 Cloudy 69 20.8 63 17.1 79 79 N N/A 30 1016 10 16.0934 N/A
5:15 pm 17:15 Cloudy 69 20.8 63 17.1 79 79 SSW 8 13 30 1016 10 16.0934 N/A
5:35 pm 17:35 Cloudy 69 20.8 64 17.5 82 82 SW 3 6 30 1016 10 16.0934 N/A
5:55 pm 17:55 Cloudy 69 20.8 63 17.3 80 80 N N/A 30 1016 10 16.0934 N/A
6:15 pm 18:15 Partly Cloudy 69 20.8 63 17.2 80 80 N N/A 30 1016 10 16.0934 N/A
6:35 pm 18:35 Sunny 69 20.8 63 17.4 81 81 N N/A 29.97 1015 10 16.0934 N/A
6:55 pm 18:55 Sunny 69 20.8 63 17.3 80 80 SSE 7 11 29.97 1015 10 16.0934 N/A
7:15 pm 19:15 Partly Cloudy 69 20.8 63 17.4 81 81 S 7 11 29.97 1015 10 16.0934 N/A
7:35 pm 19:35 Partly Cloudy 67 19.5 62 16.4 82 82 SSE 10 17 29.97 1015 10 16.0934 N/A
7:55 pm 19:55 Partly Cloudy 67 19.5 62 16.5 83 83 N N/A 29.97 1015 10 16.0934 N/A
8:15 pm 20:15 Cloudy 67 19.5 62 16.5 83 83 N N/A 29.97 1015 10 16.0934 N/A
8:35 pm 20:35 Cloudy 64 18 60 15.3 84 84 N N/A 29.97 1015 10 16.0934 N/A
8:55 pm 20:55 Mostly Cloudy 64 18 60 15.3 84 84 N N/A 29.97 1015 10 16.0934 N/A
9:15 pm 21:15 Mostly Cloudy 63 17 58 14.5 85 85 N N/A 30 1016 10 16.0934 N/A
9:35 pm 21:35 Cloudy 64 18 59 15.2 84 84 N N/A 30 1016 10 16.0934 N/A
9:55 pm 21:55 Cloudy 64 18 60 15.5 85 85 N N/A 30 1016 10 16.0934 N/A
10:15 pm 22:15 Cloudy 64 18 60 15.5 85 85 N N/A 30.03 1017 10 16.0934 N/A
10:35 pm 22:35 Cloudy 63 17.2 59 14.8 86 86 N N/A 30.03 1017 10 16.0934 N/A
10:55 pm 22:55 Cloudy 64 17.9 60 15.6 87 87 N N/A 30.03 1017 10 16.0934 N/A
11:15 pm 23:15 Mostly Cloudy 63 17.4 59 15 86 86 N N/A 30.03 1017 10 16.0934 N/A
11:35 pm 23:35 Cloudy 63 17 58 14.7 86 86 N N/A 30.03 1017 10 16.0934 N/A
11:55 pm 23:55 Mostly Cloudy 62 16.6 58 14.5 88 88 N N/A 30.03 1017 10 16.0934 N/A

Powered by AerisWeather